Location: Lecco
(45.8566°N, 9.3977°E)
Time: 00:36:43
(UTC+02:00)

S-56A Canister/Altair - Pass Details

Date: 31 July 2019
Orbit: 633 x 2499 km, 38.9° (Epoch: 25 August)

Event Time Altitude Azimuth Distance (km) Brightness Sun altitude
Rises 06:25:22 0° 247° (WSW) 4,199 10.6 2.6°
Reaches altitude 10° 06:27:53 10° 243° (WSW) 3,447 10.2 3.0°
Maximum altitude 06:36:46 58° 167° (SSE) 2,063 9.8 4.4°
Drops below altitude 10° 06:49:42 10° 94° (E) 4,896 13.1 6.5°
Sets 06:53:59 0° 91° (E) 6,052 13.7 7.2°
